Вернуться в каталог

CZ-2C R/B

АктивенHEO
NORAD 28448·ROCKET BODY·🇨🇳 China

Запущен Jul 25, 2004 с Taiyuan Satellite Launch Center

Loading…

Ближайшие Пролёты (ближайшие 24 часа)

TLE

СвежийSource: Space-Track

Эпоха: Sep 13, 2026, 20:07 UTC

1 28448U 04029B   26256.83850760  .00000375  00000-0  34204-3 0  9990
2 28448  88.0153 235.7766 7204107 191.7229 131.9628  2.33714732173644

Отслеживайте CZ-2C R/B в реальном времени с AllMySat

Download on the App Store